Regional Weather Roundup
Issued by NWS

Home | Current Version | Previous Version | Graphics & Text | Print | Product List | Glossary On
Versions: 1 2 3 4 5 6 7 8 9 10 11 12 13 14 15 16 17 18 19 20 21 22 23 24 25 26 27 28 29 30 31 32 33 34 35 36 37 38 39 40 41 42 43 44 45 46 47 48 49 50
000
ASUS43 KFSD 030902
RWRSD

WEATHER ROUNDUP FOR SOUTH DAKOTA
NATIONAL WEATHER SERVICE SIOUX FALLS SD
400 AM CDT SUN MAY 03 2015

NOTE: "FAIR" INDICATES FEW OR NO CLOUDS BELOW 12,000 FEET WITH NO
SIGNIFICANT WEATHER AND/OR OBSTRUCTIONS TO VISIBILITY.


SDZ001>005-009-010-012>017-031000-
NORTHWEST AND NORTH CENTRAL SOUTH DAKOTA

CITY           SKY/WX    TMP DP  RH WIND       PRES   REMARKS
BUFFALO          N/A     53  35  50 NE13      29.80R
FAITH            N/A     47  30  51 N9        29.81R
MOBRIDGE       CLEAR     53  37  54 N12       29.71R
$$

SDZ012>016-024>037-041>051-057-063-072>074-031000-
SOUTHWEST AND SOUTH CENTRAL SOUTH DAKOTA

CITY           SKY/WX    TMP DP  RH WIND       PRES   REMARKS
RAPID CTY ARPT MOCLDY    53  32  44 N18G24    29.79R
PIERRE         PTCLDY    55  32  41 W3        29.68R
CUSTER         MOCLDY    43  27  53 NW3       29.88R
ELLSWORTH AFB  MOCLDY    57  30  35 NW17      29.79R
PHILIP         MOCLDY    48  29  47 W10       29.73R
PINE RIDGE     MOCLDY    44  37  76 NE3       29.76S
WINNER         FAIR      55  40  56 W5        29.69S
$$

SDZ004>011-016>023-039-040-031000-
NORTHEAST SOUTH DAKOTA

CITY           SKY/WX    TMP DP  RH WIND       PRES   REMARKS
ABERDEEN       CLEAR     49  45  86 NE6       29.65S
WATERTOWN      MOCLDY    59  52  77 SE8       29.69F
BROOKINGS      CLOUDY    57  54  88 N10       29.73R
SISSETON         N/A     57  51  80 SE10      29.67S
$$

SDZ017-020-022-023-036>040-048>070-031000-
SOUTHEAST SOUTH DAKOTA

CITY           SKY/WX    TMP DP  RH WIND       PRES   REMARKS
SIOUX FALLS    CLOUDY    62  54  74 S10       29.68F
HURON          PTCLDY    61  54  77 SE6       29.66R
MITCHELL       PTCLDY    60  55  83 SE8       29.68F
YANKTON        MOCLDY    66  52  59 S21G30    29.67F
$$

ABBREVIATIONS USED IN REMARKS
   TC - TEMPERATURE IN CELSIUS
  WCI - WIND CHILL INDEX
   HX - HEAT INDEX
  VSB - VISIBILITY



USA.gov is the U.S. government's official web portal to all federal, state and local government web resources and services.